RH
94 80 62 31 35 30 30 26 25 21 19 19 18 17 15 10 8 9 9 9 7 8 8 10 11 11 8 9 10 10 8 8 11 16 16 17 16 14 14 14 15 22 35 33 32
50 71 79 54 67 67 49 34 25 27 20 19 20 20 18 13 9 8 7 6 7 8 12 12 12 9 7 10 9 8 8 12 11 13 15 17 16 15 14 13 14 15 17 27 36
14 43 62 78 47 36 42 41 24 21 27 21 21 23 22 17 10 8 6 7 7 8 15 12 10 6 7 9 8 8 10 12 12 10 9 12 13 14 12 10 15 15 14 15 34
6 12 35 50 80 74 46 44 31 19 22 22 21 18 16 12 10 11 7 8 8 8 16 12 8 7 7 7 8 8 11 12 13 12 10 9 9 10 11 10 11 11 11 12 14
8 6 14 29 40 41 22 46 34 23 21 20 17 15 14 14 12 13 11 12 13 9 15 12 8 6 6 8 8 8 12 12 13 14 12 11 11 11 10 13 11 12 12 12 13
10 8 7 7 29 33 31 39 40 24 24 20 18 17 17 14 17 14 14 14 16 14 13 12 7 6 8 9 8 9 11 13 14 14 12 12 13 10 14 15 11 11 12 13 12
13 12 8 8 8 22 42 25 47 25 26 20 19 20 23 21 21 20 19 20 16 15 12 10 8 7 10 10 9 9 12 12 16 16 12 12 11 10 15 15 12 11 11 13 10
10 8 10 8 6 9 22 43 42 36 26 22 18 20 23 23 26 30 25 21 19 16 14 10 10 10 11 11 12 10 10 12 17 14 12 12 12 13 16 16 15 15 12 12 14
8 8 7 7 7 6 8 53 41 56 26 25 18 17 20 22 23 28 32 25 19 15 12 11 10 10 12 12 10 11 9 10 12 12 10 10 9 14 14 14 14 14 14 10 14
5 5 5 5 6 5 5 34 53 70 36 26 24 17 17 19 20 24 30 27 20 15 12 10 9 8 12 12 11 9 7 7 9 10 10 10 6 11 13 12 13 13 13 13 10
3 3 3 4 5 22 73 10 58 56 50 24 27 20 17 17 16 19 23 24 19 15 12 9 8 11 13 12 11 11 10 9 10 12 10 10 6 8 11 12 11 12 15 14 13
4 3 3 3 4 55 81 36 51 81 55 30 27 24 17 15 15 15 14 13 10 9 8 9 11 12 13 14 14 14 14 14 14 14 14 11 7 9 10 13 15 14 13 17 19
24 4 4 3 4 72 65 15 55 69 54 50 24 26 22 17 14 14 14 12 13 12 13 13 13 17 16 17 17 18 17 18 18 17 16 16 8 13 13 13 15 16 14 16 19
85 11 5 4 4 16 63 100 61 97 67 52 33 26 26 22 18 14 12 12 13 14 15 16 17 18 19 18 17 15 16 14 14 14 15 14 12 12 13 13 16 18 18 17 20
100 35 6 5 4 24 100 100 97 99 100 63 47 28 26 27 23 19 16 15 15 16 18 17 18 18 16 14 12 12 14 20 28 31 27 21 22 14 14 12 12 15 20 22 19
100 100 11 6 6 100 100 100 100 94 99 81 50 44 27 25 27 25 23 21 21 21 21 18 13 14 16 20 26 27 30 36 34 20 18 20 16 14 13 16 17 17 18 21 22
100 96 10 5 6 100 100 100 100 99 94 88 44 46 42 29 24 24 24 24 22 18 16 24 28 28 29 28 32 36 38 38 30 32 32 24 14 10 8 7 13 23 26 22 23
81 48 6 5 47 100 99 100 99 62 73 65 40 36 45 44 37 32 24 20 23 31 32 31 30 30 36 40 41 42 40 40 58 50 38 22 17 22 14 12 18 44 40 30 25
97 74 6 4 61 96 78 100 86 82 98 95 62 29 38 41 42 40 38 36 35 34 33 29 31 34 35 38 41 42 52 70 68 60 61 41 31 47 23 28 63 84 91 47 32
100 24 5 7 63 96 100 100 99 100 100 100 84 33 32 33 31 27 26 27 29 29 29 31 33 34 38 49 61 67 62 81 99 98 97 69 80 46 34 57 100 87 72 69 47
100 8 6 98 100 100 100 100 100 100 100 94 93 37 28 28 27 27 28 28 28 28 34 30 29 38 57 61 56 52 75 78 99 100 100 97 75 95 42 52 95 62 54 50 48
43 11 33 100 100 95 100 100 100 100 94 87 87 55 32 30 30 30 25 26 30 33 30 36 43 53 51 57 55 68 88 100 100 100 93 99 35 100 92 78 69 84 59 44 39
16 6 95 89 99 98 100 100 96 97 81 75 76 70 48 35 33 30 27 28 37 30 39 58 54 47 51 70 81 66 95 99 97 86 60 100 55 90 98 100 66 46 67 46 34
14 21 99 86 94 100 98 97 94 96 75 64 50 61 46 35 29 26 27 33 29 40 68 55 55 53 71 87 79 69 76 40 49 25 71 71 75 92 95 82 39 30 55 35 29
64 69 70 59 100 100 94 97 91 98 87 55 37 36 28 21 25 26 33 27 38 75 71 65 66 73 78 87 85 88 82 86 50 26 37 73 70 97 100 65 53 32 64 32 21
60 78 73 63 85 69 81 100 100 100 95 70 36 27 22 31 30 34 32 35 76 82 74 82 87 91 91 97 96 98 94 83 79 82 63 92 100 96 100 92 62 88 100 36 20
50 41 42 36 71 89 99 100 99 94 84 66 42 30 38 37 33 34 23 48 76 85 90 98 98 92 91 98 97 83 75 69 75 82 88 83 89 99 100 100 100 87 58 44 49
Wind_Speed
24 32 32 31 31 33 32 32 31 34 37 39 41 44 47 47 46 46 46 48 48 45 41 35 36 36 35 34 31 30 30 23 20 20 24 31 35 34 32 31 33 39 37 35 35
23 24 31 31 34 34 34 34 31 32 35 38 38 40 44 47 45 44 47 45 46 44 40 36 37 38 37 35 32 30 29 22 22 24 29 35 38 38 35 34 34 34 38 40 36
27 28 28 34 37 35 35 34 33 33 32 35 38 39 41 45 45 43 45 44 44 44 41 39 38 38 37 35 32 31 25 26 25 26 30 34 36 40 38 34 33 33 36 36 40
28 29 31 31 38 38 35 35 34 33 33 33 36 37 39 42 43 42 43 42 43 45 43 39 38 37 37 35 32 30 26 26 26 27 27 28 32 33 37 30 33 33 34 34 34
33 31 33 32 33 40 34 37 34 33 33 32 32 36 40 42 40 41 42 41 42 45 43 39 37 37 36 33 31 29 26 25 25 27 27 30 29 32 36 32 32 32 31 31 31
39 38 36 35 34 34 38 35 35 33 33 32 32 34 37 39 39 42 41 41 42 43 40 38 36 35 35 33 32 28 26 25 24 25 26 27 31 36 32 33 33 35 30 29 30
45 46 42 38 38 37 36 35 37 34 35 33 32 34 34 39 37 38 39 39 40 42 40 38 37 36 34 33 32 30 27 26 24 25 25 27 26 28 32 40 39 37 33 31 29
51 50 50 45 40 40 37 38 39 34 36 34 33 32 32 36 34 36 38 39 39 39 38 37 36 34 34 33 33 32 29 27 24 25 26 28 25 29 32 37 43 42 38 36 34
63 59 56 52 46 43 42 39 36 39 36 36 33 31 31 31 31 34 36 37 37 37 37 36 35 34 33 33 33 31 30 29 30 30 30 29 29 26 31 31 36 45 45 41 39
70 65 62 58 53 48 45 42 42 42 39 36 33 31 30 29 28 29 32 34 35 36 35 35 33 32 32 31 31 31 31 30 30 30 30 31 32 29 29 29 31 37 45 46 45
54 52 54 58 58 46 45 50 49 43 39 35 34 32 29 28 27 27 29 31 33 33 32 31 30 27 28 28 28 28 29 31 32 33 35 35 37 36 33 32 32 34 40 48 51
42 44 44 54 59 55 52 52 45 41 38 39 37 33 31 28 27 26 27 28 28 28 28 28 28 27 24 24 26 28 30 32 36 38 40 42 41 42 42 39 38 38 41 45 49
25 29 40 53 62 62 57 53 45 43 38 41 38 36 32 29 27 26 25 25 25 26 26 27 26 23 24 26 29 31 35 38 42 46 48 50 51 49 50 48 44 42 42 44 48
22 23 36 46 58 64 49 48 46 46 39 40 38 37 34 31 28 26 25 24 25 25 25 24 25 26 27 30 34 37 38 43 47 49 52 54 61 57 57 53 51 50 47 46 46
26 15 32 39 53 57 55 49 45 36 40 39 41 37 36 33 28 27 26 25 25 25 24 26 26 29 32 35 37 40 42 46 49 53 55 53 64 66 65 63 58 56 52 49 51
25 18 28 37 54 62 54 37 41 47 39 38 39 38 35 34 32 29 27 26 26 27 26 28 29 31 34 36 38 44 48 50 53 54 59 56 66 72 67 73 70 63 60 57 54
17 17 24 40 59 60 52 38 43 44 42 33 35 36 33 31 31 31 30 29 28 28 26 28 31 33 34 38 42 45 48 51 56 59 60 61 56 63 67 67 70 70 64 61 55
26 14 23 39 69 67 54 47 47 44 39 34 30 33 34 30 30 28 28 27 26 27 29 32 31 31 35 38 42 46 46 49 50 55 55 52 57 53 42 55 59 66 67 61 56
23 2 26 44 66 46 47 46 48 43 36 32 32 28 28 33 28 25 24 26 29 31 31 29 28 30 33 38 39 41 43 44 49 49 53 50 58 56 42 42 36 44 54 59 54
14 12 32 58 65 51 48 46 41 43 29 27 31 28 23 26 27 27 28 29 28 26 25 25 28 29 32 32 35 40 38 40 45 49 53 56 57 43 31 35 29 20 32 46 49
6 15 45 69 47 50 44 45 42 35 31 27 33 30 26 26 25 26 24 23 23 21 22 25 28 25 25 28 31 34 34 37 44 50 57 60 41 37 29 31 23 21 27 28 41
11 23 58 49 44 45 42 44 35 30 26 28 33 31 29 27 28 24 21 19 18 18 21 26 24 19 22 23 28 35 35 36 42 40 42 41 23 29 28 33 30 20 27 31 39
14 36 61 44 43 36 39 37 33 29 23 29 32 32 28 31 25 20 18 17 17 18 20 21 17 19 17 21 25 25 25 28 33 32 27 33 20 22 18 13 21 28 28 31 38
19 36 53 36 36 29 34 31 33 31 27 24 32 36 36 31 26 19 18 16 13 20 18 14 16 19 14 17 23 26 27 22 25 27 19 18 10 12 13 17 25 30 34 33 38
29 41 34 35 29 30 25 29 29 27 25 26 31 33 33 28 21 18 17 11 17 16 12 12 10 5 11 17 23 24 23 23 22 16 20 7 16 13 15 17 22 23 27 35 38
24 30 27 33 31 18 24 25 21 23 21 22 30 31 27 21 19 16 13 12 14 9 6 3 4 5 9 11 16 17 16 16 18 17 18 15 11 11 9 10 14 18 17 35 39
19 25 24 24 20 20 22 21 19 17 16 21 24 23 18 17 17 17 13 13 11 7 3 2 1 0 5 11 15 17 15 12 15 11 8 6 6 9 6 10 6 13 13 27 29
Wind_Direction
280 257 254 249 248 251 252 247 247 248 248 246 241 240 241 240 241 241 241 243 244 239 237 242 246 248 248 243 245 247 254 258 256 240 230 236 244 246 246 246 244 244 244 243 241
279 274 259 258 244 245 253 254 246 245 245 244 243 241 240 238 236 237 239 240 241 237 231 234 240 249 246 243 246 249 256 253 244 230 226 228 240 247 249 248 249 249 247 242 242
283 271 265 253 252 251 251 250 249 245 244 244 245 242 239 238 234 233 235 237 238 235 229 231 238 245 244 245 248 249 251 247 240 237 235 232 237 245 250 253 253 251 251 250 242
279 271 265 263 251 249 247 247 247 244 241 241 241 242 241 234 232 231 232 234 235 232 231 231 237 241 241 243 248 249 245 242 239 237 237 235 242 246 254 256 253 252 253 253 249
278 275 264 263 260 250 251 244 247 243 241 242 243 244 242 237 231 229 230 230 232 230 232 232 233 237 238 240 244 245 241 237 235 233 232 235 237 247 251 253 253 252 253 256 253
274 270 266 258 255 255 249 245 245 243 241 242 242 243 241 238 230 228 226 226 229 231 230 231 230 233 235 236 236 240 237 239 237 237 234 236 235 248 247 253 250 249 253 254 253
268 266 261 258 254 251 249 245 239 239 238 238 241 241 240 238 228 226 224 225 226 227 227 227 229 230 230 231 234 237 237 239 241 237 238 241 236 253 239 250 249 248 250 252 248
268 261 259 251 248 247 247 239 237 237 234 233 236 235 237 236 229 222 222 221 221 221 225 228 229 230 228 229 229 234 238 239 241 240 240 245 243 245 249 247 251 251 248 249 246
268 260 252 248 240 241 238 234 236 233 233 229 232 231 232 233 228 221 219 221 219 220 222 225 226 227 228 229 230 233 236 239 240 243 245 248 256 245 251 250 249 247 250 247 244
279 265 251 240 235 233 231 225 227 228 230 223 226 228 227 228 224 219 217 219 220 221 221 223 226 227 232 232 233 236 241 247 251 253 253 254 257 253 248 253 255 252 250 250 248
274 262 246 234 224 220 225 224 220 224 227 224 221 223 222 222 220 215 210 212 216 219 222 223 225 229 232 236 239 243 247 252 255 259 258 260 259 260 256 257 262 261 257 252 249
279 256 237 222 211 205 212 218 219 218 220 221 217 218 218 218 218 215 211 210 213 215 215 218 223 228 234 239 246 250 254 258 260 261 261 258 254 263 265 265 260 256 253 253 250
280 244 222 217 205 195 206 210 212 216 220 219 217 213 214 215 216 215 213 213 213 215 219 223 227 235 242 249 257 261 264 265 266 267 267 265 259 257 260 263 264 261 255 253 251
290 243 215 214 202 198 195 200 208 211 220 218 216 213 212 213 215 216 216 216 219 222 227 233 240 247 257 264 267 268 268 270 271 272 272 270 268 262 260 255 255 260 258 254 252
8 271 212 207 196 181 181 192 208 198 219 218 215 212 211 214 214 216 219 220 224 231 238 246 254 263 267 267 270 273 274 275 277 278 277 277 277 262 263 258 255 256 255 254 251
346 319 225 199 184 169 175 186 194 199 216 217 216 213 214 215 216 220 222 226 232 239 246 256 260 263 266 272 276 278 278 277 274 271 274 279 285 269 268 263 258 254 253 251 248
327 316 223 194 176 178 168 181 187 202 205 206 211 213 214 216 218 222 228 232 238 245 248 252 259 265 273 275 276 278 281 280 278 281 282 281 293 302 280 267 255 252 248 247 245
333 311 200 181 175 173 175 179 190 202 205 209 207 210 213 215 219 221 225 230 237 242 248 255 263 271 274 278 283 284 283 282 284 283 285 289 295 304 287 256 243 246 244 243 242
348 152 176 171 180 170 177 192 189 197 203 209 207 208 209 216 219 221 226 231 238 245 253 261 267 272 278 282 285 284 285 288 292 291 288 295 295 292 299 275 262 253 247 237 236
355 150 165 160 159 173 183 183 188 196 195 195 194 201 202 207 213 219 225 231 239 245 255 265 270 280 286 287 286 287 293 299 301 298 297 295 298 295 277 268 272 232 244 238 231
60 162 165 159 155 168 170 177 187 191 200 208 197 199 204 209 213 220 223 230 239 249 261 270 272 277 280 278 289 296 307 304 301 300 300 297 299 288 270 268 272 234 230 228 221
97 164 168 157 157 163 176 180 179 183 199 200 196 204 207 214 223 230 234 234 245 256 274 274 275 285 284 284 288 292 301 302 302 307 307 298 319 292 281 274 264 244 232 219 210
139 160 158 150 158 161 173 174 185 177 184 197 198 199 210 221 226 225 234 239 254 274 270 274 292 284 286 287 283 290 311 315 308 295 307 297 315 318 297 270 250 244 233 205 208
142 160 163 158 155 168 175 178 190 203 206 208 202 206 214 222 227 229 233 245 270 266 268 280 278 277 306 308 308 308 307 314 306 303 293 296 324 258 252 234 225 227 213 200 205
136 146 163 176 152 158 165 178 183 190 204 210 212 215 219 222 225 222 234 249 260 259 280 283 263 310 307 317 311 308 307 311 315 306 298 289 301 272 248 242 230 228 212 192 199
162 167 155 160 158 159 169 176 187 196 205 207 208 214 216 217 211 222 233 248 243 275 268 255 251 312 343 349 355 349 327 317 324 328 317 312 309 312 278 225 176 191 186 195 192
157 148 169 172 173 184 182 191 206 219 220 210 210 211 211 205 206 225 235 236 237 234 246 308 79 265 10 358 1 357 344 313 308 333 319 332 127 71 108 111 138 184 168 186 180